K9BM Weather Reports


Display with metric or nautical units.
time (UTC)temp
F
wind
direction
speed
MPH
gust
MPH
rain 1hr
in
rain 24hr
in
rain mn
in
humidity
%
barometer
mb
20260502164005 63 285 3.0 8.0 0.00 0.00 0.00 28 1013.5
20260502163505 62 328 4.0 10.0 0.00 0.00 0.00 29 1013.6
20260502163005 61 1 4.0 10.0 0.00 0.00 0.00 30 1013.7
20260502162505 61 1 6.0 9.0 0.00 0.00 0.00 31 1013.7
20260502162005 61 5 5.0 9.0 0.00 0.00 0.00 31 1013.8
20260502161504 60 358 3.0 12.0 0.00 0.00 0.00 30 1013.8
20260502161005 60 16 5.0 12.0 0.00 0.00 0.00 29 1013.7
20260502152005 58 324 9.0 13.0 0.00 0.00 0.00 32 1014.1
20260502151505 57 331 9.0 13.0 0.00 0.00 0.00 33 1014.1
20260502151005 57 325 10.0 12.0 0.00 0.00 0.00 34 1014.1
20260502123505 46 231 6.0 16.0 0.00 0.00 0.00 41 1013.6
20260502123004 44 222 4.0 9.0 0.00 0.00 0.00 44 1013.6
20260502122505 43 231 6.0 9.0 0.00 0.00 0.00 44 1013.6
20260502122005 44 230 5.0 6.0 0.00 0.00 0.00 43 1013.6
20260502121005 46 208 3.0 12.0 0.00 0.00 0.00 39 1013.6
20260502115505 47 256 8.0 12.0 0.00 0.00 0.00 38 1013.5
20260502114504 46 247 9.0 12.0 0.00 0.00 0.00 40 1013.5
20260502114005 45 239 7.0 10.0 0.00 0.00 0.00 40 1013.4
20260502113504 45 241 7.0 10.0 0.00 0.00 0.00 40 1013.4
20260502113005 46 230 7.0 10.0 0.00 0.00 0.00 40 1013.5
20260502112505 46 242 7.0 12.0 0.00 0.00 0.00 39 1013.4
20260502112004 46 239 8.0 12.0 0.00 0.00 0.00 39 1013.4
20260502111505 47 236 7.0 12.0 0.00 0.00 0.00 38 1013.5
20260502110005 47 248 8.0 12.0 0.00 0.00 0.00 37 1013.5
20260502105505 47 235 7.0 12.0 0.00 0.00 0.00 37 1013.5
20260502105005 47 237 8.0 12.0 0.00 0.00 0.00 38 1013.5
20260502104504 46 232 7.0 10.0 0.00 0.00 0.00 38 1013.4
20260502104004 45 233 6.0 10.0 0.00 0.00 0.00 39 1013.4
20260502103505 45 228 6.0 9.0 0.00 0.00 0.00 40 1013.4
20260502103005 45 238 7.0 9.0 0.00 0.00 0.00 40 1013.4
20260502102004 45 236 6.0 8.0 0.00 0.00 0.00 39 1013.3
20260502101504 46 241 6.0 9.0 0.00 0.00 0.00 38 1013.3
20260502101005 46 237 6.0 9.0 0.00 0.00 0.00 38 1013.4
20260502091505 48 232 9.0 12.0 0.00 0.00 0.00 35 1013.3
20260502091005 48 234 7.0 12.0 0.00 0.00 0.00 35 1013.3
20260502071504 49 231 7.0 12.0 0.00 0.00 0.00 32 1014.0
20260502071004 50 233 9.0 12.0 0.00 0.00 0.00 31 1013.9
20260502070004 50 229 9.0 14.0 0.00 0.00 0.00 31 1014.0
20260502065504 50 229 9.0 14.0 0.00 0.00 0.00 32 1014.0
20260502065004 49 232 9.0 12.0 0.00 0.00 0.00 32 1014.0
20260502064504 49 225 7.0 12.0 0.00 0.00 0.00 32 1014.0
20260502064004 49 229 7.0 12.0 0.00 0.00 0.00 32 1014.0
20260502063505 49 223 8.0 12.0 0.00 0.00 0.00 32 1013.9
20260502063004 49 207 7.0 13.0 0.00 0.00 0.00 32 1013.9
20260502062505 49 220 8.0 13.0 0.00 0.00 0.00 32 1013.9
20260502062004 49 217 9.0 14.0 0.00 0.00 0.00 32 1013.9
20260502061504 50 214 9.0 14.0 0.00 0.00 0.00 32 1014.0
20260502061005 50 225 8.0 12.0 0.00 0.00 0.00 31 1014.0
20260502060005 50 214 7.0 12.0 0.00 0.00 0.00 31 1014.0
20260502055005 51 218 7.0 12.0 0.00 0.00 0.00 30 1014.1
20260502054504 51 217 7.0 12.0 0.00 0.00 0.00 31 1014.1
20260502054005 51 209 7.0 15.0 0.00 0.00 0.00 31 1014.1
20260502053505 51 208 7.0 15.0 0.00 0.00 0.00 30 1014.1
20260502053004 51 205 9.0 14.0 0.00 0.00 0.00 30 1014.0
20260502052504 51 211 7.0 12.0 0.00 0.00 0.00 30 1014.1
20260502052005 51 209 7.0 12.0 0.00 0.00 0.00 30 1014.0
20260502050004 51 208 9.0 14.0 0.00 0.00 0.00 31 1014.1
20260502045504 51 206 9.0 13.0 0.00 0.00 0.00 31 1014.1
20260502045004 51 203 10.0 14.0 0.00 0.00 0.00 31 1014.2
20260502044504 51 203 10.0 14.0 0.00 0.00 0.00 31 1014.2
20260502044004 51 202 9.0 15.0 0.00 0.00 0.00 30 1014.3
20260502043504 52 203 10.0 15.0 0.00 0.00 0.00 30 1014.3
20260502043005 52 202 9.0 14.0 0.00 0.00 0.00 30 1014.4
20260502041504 52 206 9.0 13.0 0.00 0.00 0.00 29 1014.4
20260502041005 53 201 9.0 16.0 0.00 0.00 0.00 29 1014.4
20260502040004 53 202 9.0 13.0 0.00 0.00 0.00 29 1014.3
20260502035504 53 198 10.0 13.0 0.00 0.00 0.00 28 1014.2
20260502034504 54 200 9.0 12.0 0.00 0.00 0.00 29 1014.2
20260502034004 54 204 8.0 12.0 0.00 0.00 0.00 28 1014.2
20260502033504 55 198 8.0 12.0 0.00 0.00 0.00 27 1014.2
20260502032504 55 195 10.0 12.0 0.00 0.00 0.00 26 1014.1
20260502032004 55 201 8.0 9.0 0.00 0.00 0.00 26 1014.1
20260502031504 56 200 7.0 9.0 0.00 0.00 0.00 25 1014.1
20260502031004 57 200 4.0 9.0 0.00 0.00 0.00 25 1014.1
20260502030004 58 233 4.0 9.0 0.00 0.00 0.00 23 1013.9
20260502025504 59 244 6.0 9.0 0.00 0.00 0.00 22 1013.9
20260502025005 60 262 6.0 9.0 0.00 0.00 0.00 21 1013.8
20260502024504 60 246 7.0 9.0 0.00 0.00 0.00 21 1013.8
20260502024004 60 249 6.0 9.0 0.00 0.00 0.00 21 1013.7
20260502023504 61 282 6.0 10.0 0.00 0.00 0.00 21 1013.7
20260502023005 61 279 7.0 10.0 0.00 0.00 0.00 20 1013.7
20260502022504 61 282 7.0 10.0 0.00 0.00 0.00 20 1013.7
20260502022004 62 278 7.0 10.0 0.00 0.00 0.00 20 1013.8
20260502021004 62 262 7.0 10.0 0.00 0.00 0.00 19 1013.7
20260502020004 63 254 7.0 12.0 0.00 0.00 0.00 19 1013.7
20260502015504 64 262 7.0 12.0 0.00 0.00 0.00 18 1013.7
20260502015004 64 260 9.0 12.0 0.00 0.00 0.00 19 1013.7
20260502014504 64 261 9.0 12.0 0.00 0.00 0.00 18 1013.7
20260502013504 65 254 10.0 14.0 0.00 0.00 0.00 18 1013.7
20260502013005 65 245 6.0 14.0 0.00 0.00 0.00 19 1013.7
20260502012004 66 261 10.0 13.0 0.00 0.00 0.00 17 1013.7
20260502011505 66 261 6.0 12.0 0.00 0.00 0.00 18 1013.7
20260502011004 66 265 7.0 12.0 0.00 0.00 0.00 17 1013.6
20260502005504 67 268 9.0 14.0 0.00 0.00 0.00 18 1013.7
20260502004503 67 247 9.0 12.0 0.00 0.00 0.00 16 1013.7
20260502004004 67 263 9.0 12.0 0.00 0.00 0.00 17 1013.7
20260502003504 67 256 8.0 15.0 0.00 0.00 0.00 18 1013.7
20260502003004 67 256 9.0 15.0 0.00 0.00 0.00 17 1013.7
20260502002504 68 252 9.0 15.0 0.00 0.00 0.00 18 1013.7
20260502002004 68 233 5.0 9.0 0.00 0.00 0.00 17 1013.8
20260502001504 67 237 5.0 12.0 0.00 0.00 0.00 18 1013.8
20260502001004 68 247 9.0 13.0 0.00 0.00 0.00 17 1013.9
20260502000004 68 281 10.0 12.0 0.00 0.00 0.00 18 1013.9
20260501235504 69 277 6.0 9.0 0.00 0.00 0.00 18 1014.0
20260501235004 69 292 5.0 10.0 0.00 0.00 0.00 18 1014.1
20260501234504 68 260 6.0 13.0 0.00 0.00 0.00 17 1014.2
20260501234004 68 286 8.0 13.0 0.00 0.00 0.00 18 1014.2
20260501233506 68 281 6.0 12.0 0.00 0.00 0.00 19 1014.3
20260501233006 67 272 5.0 14.0 0.00 0.00 0.00 19 1014.3
20260501232506 67 253 7.0 14.0 0.00 0.00 0.00 18 1014.3
20260501232006 68 266 9.0 13.0 0.00 0.00 0.00 17 1014.3
20260501231506 68 264 7.0 12.0 0.00 0.00 0.00 17 1014.4
20260501231006 68 280 9.0 12.0 0.00 0.00 0.00 18 1014.4
20260501230006 67 273 7.0 16.0 0.00 0.00 0.00 19 1014.4
20260501225506 67 239 7.0 16.0 0.00 0.00 0.00 19 1014.4
20260501225006 68 257 10.0 14.0 0.00 0.00 0.00 19 1014.5
20260501224506 67 272 3.0 15.0 0.00 0.00 0.00 17 1014.5
20260501224006 67 276 10.0 15.0 0.00 0.00 0.00 18 1014.6
20260501223506 67 253 12.0 15.0 0.00 0.00 0.00 19 1014.6
20260501223006 67 233 6.0 14.0 0.00 0.00 0.00 19 1014.6
20260501222505 67 288 7.0 16.0 0.00 0.00 0.00 17 1014.7
20260501222006 67 268 10.0 16.0 0.00 0.00 0.00 19 1014.8
20260501221506 67 301 10.0 16.0 0.00 0.00 0.00 20 1014.9
20260501221007 66 270 12.0 16.0 0.00 0.00 0.00 22 1014.9
20260501220006 67 291 9.0 15.0 0.00 0.00 0.00 22 1015.1
20260501215506 67 253 9.0 15.0 0.00 0.00 0.00 17 1015.2
20260501214506 67 264 7.0 13.0 0.00 0.00 0.00 20 1015.3
20260501214006 67 297 9.0 14.0 0.00 0.00 0.00 17 1015.4
20260501213507 66 261 10.0 14.0 0.00 0.00 0.00 20 1015.5
20260501212506 66 274 10.0 16.0 0.00 0.00 0.00 21 1015.6
20260501212006 66 261 10.0 18.0 0.00 0.00 0.00 21 1015.6
20260501211506 66 276 13.0 18.0 0.00 0.00 0.00 20 1015.6
20260501210006 66 320 7.0 16.0 0.00 0.00 0.00 22 1015.7
20260501205006 65 240 10.0 16.0 0.00 0.00 0.00 23 1015.8
20260501204506 65 252 7.0 17.0 0.00 0.00 0.00 23 1015.8
20260501204006 65 288 13.0 17.0 0.00 0.00 0.00 23 1015.8
20260501203506 65 276 11.0 16.0 0.00 0.00 0.00 22 1015.8
20260501203006 65 266 9.0 16.0 0.00 0.00 0.00 26 1015.8
20260501202506 65 271 13.0 18.0 0.00 0.00 0.00 24 1015.8
20260501202006 64 275 10.0 20.0 0.00 0.00 0.00 22 1015.9
20260501201006 64 282 13.0 20.0 0.00 0.00 0.00 25 1016.0
20260501200006 64 261 12.0 20.0 0.00 0.00 0.00 25 1016.1
20260501195506 64 255 13.0 20.0 0.00 0.00 0.00 25 1016.1
20260501195006 64 284 12.0 17.0 0.00 0.00 0.00 24 1016.1
20260501194505 63 277 10.0 17.0 0.00 0.00 0.00 26 1016.2
20260501194006 63 280 12.0 17.0 0.00 0.00 0.00 27 1016.2
20260501193506 63 253 12.0 20.0 0.00 0.00 0.00 25 1016.3
20260501192006 62 269 12.0 20.0 0.00 0.00 0.00 27 1016.5
20260501191506 62 279 12.0 16.0 0.00 0.00 0.00 26 1016.6
20260501191006 62 273 11.0 17.0 0.00 0.00 0.00 26 1016.5
20260501190006 62 262 13.0 20.0 0.00 0.00 0.00 27 1016.7
20260501185506 61 282 12.0 20.0 0.00 0.00 0.00 26 1016.7
20260501185006 62 260 11.0 17.0 0.00 0.00 0.00 26 1016.7
20260501184006 61 274 12.0 16.0 0.00 0.00 0.00 27 1016.9
20260501183506 62 270 10.0 20.0 0.00 0.00 0.00 26 1017.0
20260501183006 61 284 14.0 20.0 0.00 0.00 0.00 26 1017.1
20260501182506 61 281 13.0 20.0 0.00 0.00 0.00 26 1017.1
20260501182006 61 259 14.0 20.0 0.00 0.00 0.00 26 1017.2
20260501181506 61 290 10.0 17.0 0.00 0.00 0.00 27 1017.1
20260501181006 60 271 10.0 17.0 0.00 0.00 0.00 26 1017.3
20260501180006 60 249 12.0 18.0 0.00 0.00 0.00 27 1017.5
20260501175506 60 262 10.0 20.0 0.00 0.00 0.00 28 1017.5
20260501175006 59 249 11.0 20.0 0.00 0.00 0.00 27 1017.6
20260501174506 60 260 13.0 17.0 0.00 0.00 0.00 26 1017.6
20260501174006 60 288 11.0 16.0 0.00 0.00 0.00 29 1017.6
20260501173506 59 276 11.0 17.0 0.00 0.00 0.00 30 1017.6
20260501173006 59 282 11.0 17.0 0.00 0.00 0.00 28 1017.6
20260501172506 59 271 12.0 18.0 0.00 0.00 0.00 28 1017.7
20260501172006 59 285 12.0 18.0 0.00 0.00 0.00 30 1017.6
20260501171505 58 279 11.0 20.0 0.00 0.00 0.00 31 1017.7